Greybull, WY

3:12 AM MST on December 09, 2019 (GMT -0700)
South Big Horn County

Weather History for KGEY - October, 2019

Change the Weather History Date:

Friday, October 25, 2019

  Actual Average Record
Temperature  
Mean Temperature 42 °F 42 °F  
Max Temperature 60 °F 56 °F 80 °F (2014)
Min Temperature 25 °F 29 °F 17 °F (2001)
Degree Days  
Heating Degree Days 22 22  
Month to date heating degree days 563 445  
Since 1 July heating degree days 738 676  
Cooling Degree Days 0 0  
Month to date cooling degree days 0 0  
Year to date cooling degree days 733 669  
Moisture  
Dew Point 27 °F    
Average Humidity 60    
Maximum Humidity 84    
Minimum Humidity 33    
Precipitation  
Precipitation 0.00 in 0.01 in 0.21 in (2000)
Month to date precipitation 0.61 0.54  
Year to date precipitation 7.93 6.87  
Sea Level Pressure  
Sea Level Pressure 30.15 in    
Wind  
Wind Speed 4 mph ()    
Max Wind Speed 16 mph    
Max Gust Speed 20 mph    
Visibility 10.0 miles    
Events      
T = Trace of Precipitation, MM = Missing Value Source: Averaged Metar Reports

Daily Weather History Graph

Daily Weather History Graph

Search for Another Location

Airport or City:

Astronomy

Oct. 25, 2019 Rise Set
Actual Time 7:40 AM MDT 6:11 PM MDT
Civil Twilight 7:10 AM MDT 6:41 PM MDT
Nautical Twilight 6:36 AM MDT 7:15 PM MDT
Astronomical Twilight 6:02 AM MDT 7:49 PM MDT
Moon 4:15 AM MDT (10/25) 5:24 PM MDT (10/25)
Length of Visible Light 11h 31m
Length of Day
10h 31m
Waning Crescent, 8% of the Moon is Illuminated
Oct 25
Waning Crescent
Oct 27
New
Nov 4
First Quarter
Nov 12
Full
Nov 19
Last Quarter

Hourly Weather History & Observations

Time (MDT) Temp. Windchill Dew Point Humidity Pressure Visibility Wind Dir Wind Speed Gust Speed Precip Events Conditions
12:53 AM 32.0 °F 28.7 °F 21.9 °F 66% 30.34 in 10.0 mi South 3.5 mph - N/A   Clear
1:53 AM 30.9 °F - 23.0 °F 72% 30.35 in 10.0 mi Calm Calm - N/A   Clear
2:53 AM 28.9 °F 23.9 °F 23.0 °F 78% 30.35 in 10.0 mi ESE 4.6 mph - N/A   Clear
3:53 AM 30.0 °F 26.5 °F 23.0 °F 75% 30.34 in 10.0 mi South 3.5 mph - N/A   Clear
4:53 AM 28.9 °F - 23.0 °F 78% 30.33 in 10.0 mi Calm Calm - N/A   Clear
5:53 AM 28.0 °F - 21.9 °F 78% 30.33 in 10.0 mi Calm Calm - N/A   Clear
6:53 AM 26.1 °F 20.5 °F 21.9 °F 84% 30.34 in 10.0 mi SE 4.6 mph - N/A   Clear
7:53 AM 27.0 °F 18.0 °F 21.9 °F 81% 30.32 in 10.0 mi SE 9.2 mph - N/A   Clear
8:53 AM 30.9 °F - 23.0 °F 72% 30.32 in 10.0 mi Calm Calm - N/A   Clear
9:53 AM 34.0 °F 31.0 °F 24.1 °F 67% 30.31 in 10.0 mi SE 3.5 mph - N/A   Clear
10:53 AM 41.0 °F 37.1 °F 27.0 °F 57% 30.28 in 10.0 mi SE 5.8 mph - N/A   Clear
11:53 AM 46.9 °F - 25.0 °F 42% 30.24 in 10.0 mi SE 5.8 mph - N/A   Clear
12:53 PM 52.0 °F - 26.1 °F 37% 30.19 in 10.0 mi SSE 6.9 mph - N/A   Clear
1:53 PM 55.0 °F - 28.0 °F 35% 30.12 in 10.0 mi SSE 9.2 mph - N/A   Clear
2:53 PM 57.0 °F - 28.9 °F 34% 30.06 in 10.0 mi SSE 13.8 mph 19.6 mph N/A   Clear
3:53 PM 59.0 °F - 30.0 °F 33% 30.02 in 10.0 mi South 10.4 mph 19.6 mph N/A   Clear
4:53 PM 59.0 °F - 30.9 °F 35% 29.99 in 10.0 mi South 9.2 mph - N/A   Clear
5:53 PM 55.9 °F - 32.0 °F 40% 29.97 in 10.0 mi SSE 4.6 mph - N/A   Clear
6:53 PM 53.1 °F - 32.0 °F 45% 29.97 in 10.0 mi East 3.5 mph - N/A   Clear
7:53 PM 48.9 °F - 33.1 °F 54% 29.96 in 10.0 mi ESE 8.1 mph - N/A   Clear
8:53 PM 46.0 °F 44.8 °F 33.1 °F 61% 29.94 in 10.0 mi NE 3.5 mph - N/A   Clear
9:53 PM 43.0 °F - 33.1 °F 68% 29.91 in 10.0 mi Calm Calm - N/A   Clear
10:53 PM 39.9 °F 37.8 °F 33.1 °F 77% 29.88 in 10.0 mi South 3.5 mph - N/A   Clear
11:53 PM 39.9 °F 37.8 °F 32.0 °F 73% 29.85 in 10.0 mi Variable 3.5 mph - N/A   Clear